UNSW-ECO (42723 NORAD) Tracking and Keplerian Element Data

This shows tracking and keplerian element data for the satellite.

Feedback or suggestion? Click here.




ElementValue
Catalog42723
NameUNSW-ECO
Epoch Orbit8754
Epoch Day337.56119802
Epoch Year2018
RAAN187.6942
Inclination51.6259
Eccentricity0.0006339
Argument of Perigee249.0867
Mean Anonmoly110.9484
Mean Motion16.46458799
Decay Rate0.13780986
L11 42723U 98067MC 18337.56119802 .13780986 12541-4 29133-3 0 9992
L22 42723 51.6259 187.6942 0006339 249.0867 110.9484 16.46458799 87542

Live tracking and technical data element details for UNSW-ECO (NORAD 42723). UNSW-ECO can be tracked NOW for your location showing map with azimuth and elevation plus other details from your city location.

Track the satellite on the map from your city or location and see movement details for azimuth, elevation, latitude, longitude, range, height, and movement on the map or in text.







IsCatalogInMostPopularTable: catalog: 42723, numindb: 204
Update: records affected: 1



GetName: 42723 UNSW-ECO

Hit Count: updated at: Wed, 20 Mar 2019 05:15:19 GMT